Theta_e
292 294 296 296 297 294 293 292 292 296 292 297 301 304 312 315 319 321 322 324 330 330 332 331 331 331 332 329 330 336 346 349 350 354 356 356 355 354 355 356 356 357 357 356
291 296 297 298 299 296 295 295 294 293 293 299 306 315 313 317 318 319 322 324 330 331 331 328 326 327 331 334 334 348 349 350 352 353 354 354 354 353 353 353 353 355 357 356
293 295 296 293 297 299 299 297 297 293 298 308 312 314 313 316 320 319 322 323 328 331 329 327 326 330 333 338 338 347 350 352 353 353 352 353 353 350 349 352 356 357 356 355
293 292 287 296 299 302 301 303 299 299 302 308 310 318 323 317 320 322 323 323 326 333 332 330 329 334 339 334 339 347 349 350 350 350 348 345 345 349 353 355 355 355 354 350
294 291 296 301 305 306 304 305 312 310 310 314 326 325 321 330 332 323 326 323 323 329 337 333 332 335 342 338 339 346 347 348 347 346 346 350 351 353 354 354 350 348 349 347
292 292 291 300 307 314 311 302 311 312 314 323 324 312 314 332 336 337 340 339 327 331 336 340 335 335 341 339 340 344 347 347 347 348 351 352 353 351 349 346 344 348 345 341
294 294 298 303 313 314 300 302 311 314 321 324 318 316 325 336 337 339 343 345 345 343 341 343 345 341 342 344 344 348 347 348 349 352 352 353 349 346 345 345 345 343 337 336
295 293 294 313 312 304 307 312 314 315 318 319 321 328 332 335 337 341 345 346 344 347 349 348 348 347 345 345 348 348 349 351 352 353 352 346 344 344 344 344 343 337 335 330
301 301 308 314 312 316 315 313 317 319 320 321 324 331 332 334 338 341 344 341 341 345 350 350 351 350 346 348 350 350 351 350 348 345 344 344 344 342 343 343 336 332 333 325
305 308 312 315 318 319 321 320 321 320 322 324 327 331 331 330 330 330 331 334 335 331 331 329 337 352 351 350 347 345 339 341 342 341 340 342 343 343 339 334 331 331 325 321
305 308 312 317 320 321 322 323 324 322 322 322 324 325 325 326 327 327 333 336 338 344 346 344 347 348 347 345 344 339 337 339 339 338 325 317 313 316 326 320 329 325 321 321
304 310 310 312 318 322 321 321 324 328 324 322 322 324 324 323 327 328 331 337 342 342 343 344 343 342 343 343 343 341 340 339 335 328 323 322 320 315 307 307 306 304 304 311
310 315 317 317 319 323 323 324 327 328 329 325 321 323 324 324 326 325 333 341 340 343 344 342 342 342 344 344 343 343 341 338 333 324 322 320 320 319 315 312 304 301 300 300
317 316 312 318 317 321 322 325 326 329 329 329 323 323 325 325 326 329 331 340 343 343 342 341 342 339 340 337 341 341 339 324 333 327 323 321 321 319 317 314 313 312 305 305
312 317 317 318 319 321 325 328 327 326 326 326 325 323 326 327 327 329 337 342 337 339 340 339 336 333 335 335 333 332 335 333 330 328 324 321 319 318 316 314 312 312 312 308
316 318 319 317 318 320 322 326 324 324 325 327 326 329 328 331 330 330 339 335 335 335 336 336 335 335 333 334 334 334 331 325 324 324 322 321 320 315 313 311 310 310 310 310
309 309 312 314 316 318 322 325 325 325 326 325 335 340 339 334 335 336 334 334 333 334 334 332 329 331 334 333 332 330 328 325 323 322 321 320 318 314 312 311 310 309 309 309
308 309 312 316 317 321 324 327 325 328 327 327 337 340 338 336 333 333 332 332 330 328 330 333 330 329 332 331 328 327 326 323 322 320 319 318 316 314 312 311 309 308 307 306
308 311 316 319 322 326 327 327 326 330 331 327 331 335 336 335 334 332 333 331 326 325 322 324 325 327 327 327 326 324 322 320 319 318 317 313 314 312 311 310 309 308 307 305
306 312 315 322 328 328 327 328 330 329 332 330 332 330 331 331 331 330 329 327 327 326 323 325 325 325 325 327 324 323 321 319 317 316 315 314 312 311 310 306 309 308 307 306
306 311 321 325 327 329 330 331 332 328 333 330 327 329 330 329 329 327 324 324 324 323 324 322 324 323 323 322 321 320 319 317 316 315 313 312 311 311 310 310 309 308 307 307
316 320 323 325 326 327 329 330 331 328 330 329 328 326 326 326 326 326 328 327 324 317 320 320 321 321 322 321 320 319 317 317 315 314 312 312 311 310 310 309 308 308 307 307
321 322 322 323 324 322 323 323 326 327 326 327 325 325 326 325 323 323 321 321 322 317 321 320 318 319 318 320 318 317 316 315 314 313 312 311 310 309 309 308 306 305 303 301
318 321 320 321 322 321 320 322 323 328 326 326 326 329 326 323 322 324 322 316 313 316 320 319 317 315 315 318 317 316 316 315 314 313 312 304 309 308 308 305 302 300 299 296
317 319 319 318 319 319 320 323 326 328 329 327 326 329 327 327 325 321 322 320 313 318 318 313 313 312 314 314 315 314 314 314 313 313 311 309 307 307 304 302 301 300 298 297
316 317 319 319 319 320 320 324 325 326 326 327 326 325 323 323 322 322 321 317 319 315 316 314 312 311 310 311 311 311 310 309 310 309 308 306 304 303 302 301 300 299 299 298
318 310 320 321 321 322 322 324 325 325 325 326 324 323 322 321 320 319 315 318 318 317 316 314 311 308 308 307 307 307 306 307 304 305 305 303 303 302 302 301 301 300 299 298
Wind_Speed
6 4 3 3 5 9 8 6 7 11 10 11 13 9 12 9 4 8 10 12 14 14 14 13 12 10 7 6 9 6 8 9 11 8 6 5 5 5 4 4 4 4 3 1
2 3 3 2 6 8 4 2 9 3 10 11 3 2 7 8 8 10 14 15 15 16 16 15 16 10 9 12 14 9 7 9 7 7 7 6 5 5 5 4 4 3 3 3
2 5 7 4 7 7 4 5 6 7 13 4 5 8 8 10 10 13 16 16 18 21 18 18 14 12 6 3 9 6 7 4 5 5 6 5 5 6 5 5 4 3 3 4
1 5 0 10 4 3 5 8 8 8 7 8 6 2 2 5 12 12 11 17 17 15 17 15 12 8 7 5 10 8 4 5 6 7 7 5 5 5 5 4 4 3 3 4
4 3 6 4 3 2 3 7 2 6 9 4 1 3 6 6 3 4 3 11 13 14 18 19 17 14 11 7 7 8 8 8 7 8 8 8 7 6 4 4 3 3 3 4
3 4 5 8 3 1 2 7 1 3 7 1 1 3 8 5 6 6 7 13 16 15 16 20 20 19 16 11 8 9 10 9 8 9 9 8 8 7 3 4 5 4 6 6
4 3 8 6 4 1 4 10 6 4 5 7 6 4 6 1 4 5 7 13 15 14 13 15 20 20 17 16 16 13 10 9 9 10 10 7 6 3 5 5 6 6 7 6
3 2 4 0 2 5 6 5 4 6 6 6 2 2 3 2 8 9 13 14 15 16 15 11 9 15 16 16 11 11 11 11 8 8 7 7 8 5 5 5 6 6 6 6
7 6 4 4 3 2 2 4 6 5 5 6 8 7 7 5 4 6 8 9 6 9 13 16 12 1 12 10 13 13 12 10 7 6 6 6 7 6 5 5 6 6 6 4
3 2 4 4 5 4 4 4 10 10 5 3 4 7 4 3 3 5 6 6 6 3 6 9 17 0 7 13 14 13 11 5 5 7 7 5 5 3 4 5 6 6 6 5
3 4 3 4 4 5 10 5 6 8 5 6 7 5 4 3 4 5 7 6 4 4 6 9 22 11 7 11 14 15 11 8 3 6 8 8 9 5 4 4 3 7 5 5
3 5 4 7 7 10 11 8 6 5 7 3 6 8 7 6 3 5 7 8 10 5 7 11 13 14 12 13 16 18 13 9 6 6 7 7 8 10 19 13 18 16 13 7
4 5 6 9 8 6 7 10 6 8 5 7 6 9 9 6 6 5 5 5 10 12 6 12 14 14 12 12 16 14 13 10 9 9 8 8 7 9 11 9 16 15 13 13
3 3 3 4 4 7 9 11 7 8 10 4 6 2 9 10 9 8 7 5 7 13 13 9 6 6 3 4 10 12 10 11 7 10 10 8 6 7 7 7 8 6 8 9
6 8 8 4 6 5 6 7 6 8 8 7 5 5 7 15 14 10 8 8 6 11 11 9 8 4 5 7 7 11 10 7 8 8 10 10 7 7 7 7 7 7 5 6
2 2 6 5 7 4 3 6 6 7 3 5 4 5 7 9 15 12 9 11 13 10 8 5 2 3 6 9 9 6 8 17 11 9 10 10 8 8 7 7 7 5 5 4
6 7 7 9 6 4 5 5 6 6 2 3 4 2 1 5 12 13 11 7 11 10 10 12 9 3 3 5 7 5 7 8 13 8 9 9 9 8 8 7 7 6 5 5
11 9 9 7 7 6 5 6 6 4 5 5 4 5 3 4 10 13 13 10 8 6 2 2 11 2 3 4 7 6 7 8 8 8 9 9 9 8 8 9 8 8 6 6
14 17 12 8 7 7 7 6 6 5 5 6 7 8 7 6 3 11 14 13 10 12 8 9 10 8 6 6 8 6 7 8 8 7 7 11 9 8 8 8 9 8 7 6
12 14 11 8 9 9 8 6 5 5 6 9 7 9 8 10 11 7 8 11 7 4 9 11 10 8 8 10 13 7 9 9 9 8 8 8 8 9 8 9 9 8 7 6
14 11 10 10 11 9 8 10 7 8 7 8 8 9 10 9 11 13 11 7 1 7 9 11 8 6 6 10 10 9 9 9 9 9 9 8 9 8 8 8 8 7 7 6
4 7 10 10 10 10 8 2 2 5 8 8 12 10 12 13 10 5 4 13 3 5 6 5 6 9 8 12 7 8 9 9 8 7 8 8 8 8 8 8 8 6 6 6
3 3 5 6 5 3 2 2 4 5 6 5 7 7 5 7 12 10 8 9 4 4 4 4 10 14 14 6 7 8 9 9 9 8 8 7 7 8 8 7 6 7 7 6
1 4 4 5 7 5 4 1 1 3 3 2 2 7 6 9 6 4 13 11 10 8 5 5 9 14 11 6 7 8 8 8 8 8 7 7 6 7 7 7 7 7 6 5
1 4 5 6 7 3 5 4 4 3 4 6 4 6 7 4 4 6 9 8 12 10 7 11 15 14 7 7 7 7 8 8 8 8 8 8 8 7 6 6 6 6 5 5
1 3 4 7 5 7 5 4 4 5 3 4 5 5 5 6 8 9 9 10 9 10 8 7 6 6 7 7 8 8 7 7 7 7 8 7 7 7 7 7 7 6 6 5
3 2 3 3 4 6 7 8 7 8 7 7 6 7 6 7 7 9 10 8 6 6 7 7 6 6 6 6 6 6 6 6 7 7 7 7 7 7 7 7 7 7 5 5
Wind_Direction
207 213 202 198 177 174 192 176 157 251 206 242 250 219 217 226 156 154 135 138 154 162 166 161 155 177 170 135 130 154 170 184 208 196 177 176 167 173 193 192 214 234 247 233
3 241 187 227 238 199 226 150 267 252 267 225 269 187 164 192 181 198 151 157 166 166 161 155 162 168 207 160 134 138 175 188 174 180 159 175 159 164 175 175 206 221 211 143
272 30 0 324 230 193 198 180 154 179 231 159 206 227 204 196 193 206 147 165 172 176 165 161 174 158 174 172 95 114 142 189 158 158 157 161 154 157 162 174 167 188 144 122
145 34 287 241 302 255 228 257 212 275 262 239 238 269 263 218 206 202 169 169 181 169 159 165 158 159 177 197 115 130 156 194 154 168 146 149 156 162 159 143 158 149 93 76
125 175 282 308 357 69 77 290 94 270 289 276 16 45 286 197 179 215 113 124 173 175 154 159 175 175 166 171 112 142 190 198 169 148 147 151 154 162 142 134 123 103 93 93
124 152 205 237 252 171 178 287 194 256 268 226 145 141 244 155 143 125 113 131 151 164 150 163 176 178 179 179 160 187 192 176 162 151 153 166 158 150 139 118 115 114 90 74
140 195 284 243 279 129 155 242 314 312 234 172 172 204 277 222 92 109 121 116 122 135 144 160 167 176 190 180 189 186 158 155 164 158 155 148 135 130 127 119 107 103 106 83
90 120 280 85 291 182 234 293 290 288 225 175 177 53 301 216 130 134 123 118 117 119 116 111 157 173 176 184 166 144 150 154 159 156 147 144 135 117 119 116 114 125 113 83
174 218 273 302 335 339 279 270 308 289 246 205 169 175 177 194 177 110 106 114 91 104 126 122 104 170 175 155 140 147 148 142 147 146 132 128 129 129 119 120 126 128 114 98
31 359 279 326 325 294 298 282 298 287 251 159 134 131 152 130 29 56 65 49 27 340 203 85 47 103 190 145 128 115 100 83 117 112 97 82 84 96 122 130 127 126 127 128
257 6 339 346 310 290 309 308 338 324 295 125 122 128 149 125 102 97 89 82 59 71 80 102 136 148 165 122 124 111 104 99 54 90 94 87 65 37 68 37 108 131 118 112
168 199 181 267 280 312 318 322 323 341 315 287 148 144 107 127 93 71 101 129 111 79 136 138 127 137 135 136 129 121 124 115 126 126 108 105 108 85 44 54 71 73 67 86
155 165 213 248 285 288 311 317 318 317 317 263 252 146 133 139 123 118 102 115 148 142 145 131 144 146 146 156 132 127 123 131 128 127 115 114 106 110 111 57 64 65 73 76
221 345 306 191 217 300 293 298 307 301 307 311 198 221 142 134 121 135 136 190 155 135 139 132 134 129 141 91 138 132 113 103 142 132 125 107 119 129 128 134 123 103 52 77
242 210 235 274 282 300 297 307 321 298 318 342 321 223 184 131 133 146 161 143 127 126 136 156 145 148 115 128 128 128 126 131 128 132 120 125 138 123 128 123 119 118 112 75
181 242 288 261 280 272 279 309 304 281 315 352 330 321 284 125 126 132 147 147 140 148 137 141 142 140 151 146 137 116 109 115 119 125 130 138 131 127 130 122 117 116 116 115
255 261 264 276 273 271 201 217 251 279 175 35 14 31 221 120 120 127 140 139 136 143 141 135 125 265 210 114 107 104 100 112 121 115 132 136 135 138 132 130 127 128 122 121
219 232 226 226 267 286 263 218 222 266 220 179 116 109 117 247 152 137 130 132 117 100 32 21 99 76 314 89 100 100 105 120 133 137 131 130 131 134 138 134 137 137 135 122
218 230 225 221 225 227 252 259 225 192 166 154 137 138 144 139 183 135 135 128 150 159 171 124 134 141 142 128 113 115 120 121 117 118 122 124 126 136 142 146 151 146 140 137
217 220 218 200 194 195 211 241 242 194 196 188 166 150 152 143 127 119 126 138 166 163 149 145 146 135 133 138 123 126 135 135 131 134 138 133 140 146 153 151 150 146 151 150
220 206 191 185 200 201 210 229 228 191 185 147 123 127 138 132 129 133 143 109 272 167 142 135 129 127 138 132 127 135 134 130 136 143 147 145 146 151 151 153 158 156 159 167
218 197 181 180 182 195 220 277 230 161 169 165 184 162 132 134 136 119 112 124 200 169 119 119 124 134 133 128 129 130 132 137 136 140 143 148 149 157 164 166 165 171 170 170
184 177 149 170 149 145 68 27 338 225 196 169 165 140 99 137 126 168 146 97 139 121 109 116 124 128 132 128 133 133 134 142 145 151 155 160 161 159 162 175 169 160 162 169
98 147 159 132 136 155 177 229 330 234 223 107 99 74 113 144 150 150 81 114 128 132 143 147 141 136 132 138 141 140 136 141 148 156 157 155 156 157 154 167 164 163 158 165
151 184 153 151 168 154 154 170 155 161 189 168 159 132 121 44 100 84 117 134 144 148 157 158 145 136 135 141 143 144 148 154 159 153 159 161 162 166 164 168 167 167 171 182
165 179 193 187 162 160 180 171 166 154 166 182 124 106 106 112 123 137 143 152 154 150 150 154 150 141 141 147 149 147 146 144 157 156 153 150 159 165 169 174 173 180 188 197
305 159 206 219 188 173 172 182 168 179 180 168 164 147 135 130 138 138 137 143 148 153 152 139 140 139 139 135 138 143 146 151 149 154 156 159 167 179 175 179 183 187 191 189